Regional Weather Roundup
Issued by NWS

Home | Current Version | Previous Version | Graphics & Text | Print | Product List | Glossary On
Versions: 1 2 3 4 5 6 7 8 9 10 11 12 13 14 15 16 17 18 19 20 21 22 23 24 25 26 27 28 29 30 31 32 33 34 35 36 37 38 39 40 41 42 43 44 45 46 47 48 49 50
495
ASUS43 KDTX 251001
RWRMI
MICHIGAN HOURLY REGIONAL WEATHER ROUNDUP
NATIONAL WEATHER SERVICE DETROIT/PONTIAC MI
600 AM EDT THU MAY 25 2017

NOTE: "FAIR" INDICATES FEW OR NO CLOUDS BELOW 12,000 FEET WITH NO
SIGNIFICANT WEATHER AND/OR OBSTRUCTION TO VISIBILITY.

MIZ047>049-052>055-059>063-066>070-074>076-081>083-251100-
SOUTHEAST LOWER MICHIGAN

CITY           SKY/WX    TMP DP  RH WIND       PRES   REMARKS
ADRIAN         LGT RAIN  57  57 100 E9        29.44S FOG
ALMA           CLOUDY    55  54  98 NE13      29.53S FOG
ANN ARBOR      LGT RAIN  58  58 100 N8        29.44F FOG
BAD AXE        CLOUDY    53  51  95 NE7       29.54F FOG
CARO           CLOUDY    55  55  98 NE6       29.51F FOG
DETROIT CITY   CLOUDY    58  57  97 E10       29.46S
DETROIT        LGT RAIN  59  57  93 NE9       29.45S FOG
FLINT          CLOUDY    56  55  97 NE8       29.49F FOG
GROSSE ILE     CLOUDY    58  56  94 E6        29.43S
HILLSDALE      DRIZZLE   57  55  94 NE7       29.44R
HOWELL         CLOUDY    56  54  92 NE6       29.47S FOG

CITY           SKY/WX    TMP DP  RH WIND       PRES   REMARKS
JACKSON        LGT RAIN  58  57  97 NE7       29.46R FOG
LAMBERTVILLE   CLOUDY    58  56  96 NE5       29.42S
LANSING        CLOUDY    58  53  84 NE12      29.49S HAZE
LAPEER         CLOUDY    56  55  97 NE5       29.50S FOG
MASON          CLOUDY    56  56  99 NE9       29.48R FOG
MONROE         CLOUDY    59  57  95 NE6       29.43S
MT. CLEMENS    CLOUDY    58  58 100 NE9       29.46S
PONTIAC        DRIZZLE   57  55  93 NE8       29.46S FOG
PORT HOPE        N/A     50  49  96 E14       29.54S
PORT HURON     CLOUDY    57  55  94 E5        29.49R
TRI CITIES     CLOUDY    54  53  97 NE16      29.53F
MIDLAND        CLOUDY    55  53  93 NE9       29.54R
TROY           CLOUDY    58  56  92 NE7       29.48S
SAGINAW HB     CLOUDY    54  52  94 N9        29.51F
$$
MIZ043>046-050>051-056>058-064>065-071>073-077>080-251100-
SOUTHWEST LOWER MICHIGAN

CITY           SKY/WX    TMP DP  RH WIND       PRES   REMARKS
BATTLE CREEK   CLOUDY    57  56  96 N9        29.47F
BENTON HARBOR  CLOUDY    57  54  89 CALM      29.49R
BIG RAPIDS     LGT RAIN  55  51  88 NE6       29.55S
COLDWATER      DRIZZLE   58  58 100 N12       29.44S
FREMONT        CLOUDY    55  53  94 N7        29.54R
HOLLAND        CLOUDY    58  53  84 VRB7      29.51R
GRAND RAPIDS   CLOUDY    56  56 100 NE14      29.51R
IONIA          DRIZZLE   55  54  97 NE12G17   29.50S
KALAMAZOO      CLOUDY    57  54  89 N8        29.48S FOG
LUDINGTON      CLOUDY    52  51  97 N7        29.57R
MARSHALL       LGT RAIN  56  56  99 N3        29.46R
MOUNT PLEASANT HVY RAIN  54  53  96 N6        29.54S
MUSKEGON       CLOUDY    58  54  86 N9        29.53S
$$
MIZ016>042-251100-
NORTHERN LOWER MICHIGAN

CITY           SKY/WX    TMP DP  RH WIND       PRES   REMARKS
ALPENA         LGT RAIN  52  52 100 NE6       29.64S
BEAVER ISLAND  CLOUDY    54  50  89 NE6       29.67S
BELLAIRE       MOCLDY    54  50  87 N5        29.62S
CADILLAC       CLOUDY    53  51  94 NE8       29.58S
CHARLEVOIX     CLOUDY    55  51  86 E5        29.67S
FRANKFORT      MOCLDY    52  48  86 N3        29.61R
GAYLORD        LGT RAIN  53  49  86 NE9       29.63S
GRAYLING       CLOUDY    52  51  96 NE9       29.61S
HARBOR SPRINGS PTCLDY    55  52  90 NE9       29.65R
HOUGHTON LAKE  LGT RAIN  53  51  93 NE9       29.59S
MANISTEE       MOCLDY    53  51  93 NW6       29.59R
OSCODA         CLOUDY    53  51  92 NE16      29.58S
PELLSTON       PTCLDY    54  49  83 NE7       29.66S
ROGERS CITY    LGT RAIN  48  46  94 CALM      29.66S
TRAVERSE CITY  CLOUDY    50  48  93 NW3       29.60S
$$
MIZ007>008-015-251100-
EASTERN UPPER MICHIGAN

CITY           SKY/WX    TMP DP  RH WIND       PRES   REMARKS
KINROSS        CLOUDY    54  52  93 NE6       29.69S
MACKINAC ISLAN CLOUDY    53  53 100 NE10      29.67S
NEWBERRY       CLOUDY    49  48  97 NE3       29.70R
S. S. MARIE    HVY RAIN  54  52  93 NE5       29.70R FOG
MUNISING         N/A     43  40  89 NW6       29.73R
$$
MIZ004>006-011>014-085-251100-
CENTRAL UPPER MICHIGAN

CITY           SKY/WX    TMP DP  RH WIND       PRES   REMARKS
MANISTIQUE     CLOUDY    50  47  89 N6        29.68S
ESCANABA       CLOUDY    50  46  86 N7        29.69S
MENOMINEE      CLOUDY    50  47  89 N7        29.68S
SAWYER-GWINN   CLOUDY    43  41  93 N7        29.73S
$$
MIZ001>003-009>011-084-251100-
WESTERN UPPER MICHIGAN

CITY           SKY/WX    TMP DP  RH WIND       PRES   REMARKS
IRON MOUNTAIN  CLOUDY    46  42  86 NW5       29.71S
HOUGHTON       PTCLDY    40  37  89 NW5       29.75S
COPPER HARBOR    N/A     39  38  96 W5        29.76S
IRONWOOD       CLOUDY    43  42  97 CALM      29.76R
$$

ABBREVIATIONS USED IN REMARKS
   TC - TEMPERATURE IN CELSIUS
  WCI - WIND CHILL INDEX
   HX - HEAT INDEX
  VSB - VISIBILITY





USA.gov is the U.S. government's official web portal to all federal, state and local government web resources and services.